This is the latest recevied weather packets stored in our database for station/object K3FAZ. If no packets are shown the sender has not sent any weather packets the latest 10 day(s).
| Time | Temp. | Humidity | Pressure | Rain* | Wind** | Luminosity | Snow |
|---|---|---|---|---|---|---|---|
| 1777068491 | 26.11° C | 39% | 1009.5 hPa | 0 mm | - | 144 W/m² | - |
| 1777068190 | 26.11° C | 38% | 1009.5 hPa | 0 mm | - | 204 W/m² | - |
| 1777067885 | 26.67° C | 37% | 1009.6 hPa | 0 mm | - | 177 W/m² | - |
| 1777067584 | 26.67° C | 39% | 1009.6 hPa | 0 mm | - | 219 W/m² | - |
| 1777067283 | 26.67° C | 37% | 1009.8 hPa | 0 mm | - | 204 W/m² | - |
| 1777066979 | 26.67° C | 35% | 1009.6 hPa | 0 mm | - | 289 W/m² | - |
| 1777066674 | 26.67° C | 36% | 1009.6 hPa | 0 mm | - | 320 W/m² | - |
| 1777066370 | 26.67° C | 36% | 1009.7 hPa | 0 mm | - | 341 W/m² | - |
| 1777066065 | 26.67° C | 37% | 1009.9 hPa | 0 mm | - | 364 W/m² | - |
| 1777065759 | 26.67° C | 35% | 1009.6 hPa | 0 mm | - | 411 W/m² | - |
| 1777065456 | 26.67° C | 36% | 1009.7 hPa | 0 mm | - | 411 W/m² | - |
| 1777065150 | 26.67° C | 36% | 1009.8 hPa | 0 mm | - | 399 W/m² | - |
| 1777064848 | 26.11° C | 36% | 1009.7 hPa | 0 mm | - | 412 W/m² | - |
| 1777064545 | 26.67° C | 39% | 1010 hPa | 0 mm | - | 298 W/m² | - |
| 1777064241 | 26.67° C | 38% | 1009.9 hPa | 0 mm | - | 336 W/m² | - |
| 1777063936 | 27.22° C | 35% | 1010 hPa | 0 mm | - | 378 W/m² | - |
| 1777063635 | 27.22° C | 35% | 1009.9 hPa | 0 mm | - | 337 W/m² | - |
| 1777063332 | 27.22° C | 36% | 1009.8 hPa | 0 mm | - | 416 W/m² | - |
| 1777063029 | 27.22° C | 33% | 1010.1 hPa | 0 mm | - | 490 W/m² | - |
| 1777062726 | 27.22° C | 34% | 1010.1 hPa | 0 mm | - | 564 W/m² | - |
| 1777062424 | 26.67° C | 36% | 1010.1 hPa | 0 mm | - | 507 W/m² | - |
| 1777062120 | 27.22° C | 35% | 1010.1 hPa | 0 mm | - | 507 W/m² | - |
| 1777061816 | 26.67° C | 37% | 1010 hPa | 0 mm | - | 479 W/m² | - |
| 1777061512 | 26.67° C | 35% | 1010.1 hPa | 0 mm | - | 485 W/m² | - |
| 1777061210 | 27.22° C | 34% | 1010.3 hPa | 0 mm | - | 529 W/m² | - |
* Rain latest hour (hover to see other rain measurements)
** Current wind speed in m/s (hover to see current wind gust speed)